This is the latest recevied weather packets stored in our database for station/object W8RD. If no packets are shown the sender has not sent any weather packets the latest 1 day(s).
| Time | Temp. | Humidity | Pressure | Rain* | Wind** | Luminosity | Snow |
|---|---|---|---|---|---|---|---|
| 1777991958 | 26.11° C | 66% | 1017.4 hPa | 0 mm | 0 m/s | 54 W/m² | - |
| 1777991358 | 25.56° C | 67% | 1017.5 hPa | 0 mm | 0 m/s | 47 W/m² | - |
| 1777990759 | 25.56° C | 68% | 1017.2 hPa | 0 mm | 0.45 m/s, 318° | 50 W/m² | - |
| 1777990159 | 25° C | 68% | 1017.2 hPa | 0 mm | 0 m/s | 46 W/m² | - |
| 1777989558 | 25° C | 68% | 1017.2 hPa | 0 mm | 0 m/s | 44 W/m² | - |
| 1777988956 | 25° C | 69% | 1017.2 hPa | 0 mm | 0.45 m/s, 2° | 70 W/m² | - |
| 1777988355 | 24.44° C | 71% | 1017 hPa | 0 mm | 0 m/s | 39 W/m² | - |
| 1777987754 | 23.89° C | 73% | 1016.7 hPa | 0 mm | 0.45 m/s, 337° | 33 W/m² | - |
| 1777987154 | 23.33° C | 74% | 1016.8 hPa | 0 mm | 0 m/s | 29 W/m² | - |
| 1777986554 | 23.33° C | 75% | 1016.8 hPa | 0 mm | 0 m/s | 26 W/m² | - |
| 1777985955 | 22.78° C | 76% | 1016.8 hPa | 0 mm | 0 m/s | 26 W/m² | - |
| 1777985355 | 22.78° C | 76% | 1016.7 hPa | 0 mm | 0 m/s | 24 W/m² | - |
| 1777984753 | 22.22° C | 79% | 1016.7 hPa | 0 mm | 0.45 m/s, 326° | 24 W/m² | - |
| 1777984151 | 21.67° C | 80% | 1016.6 hPa | 0 mm | 0 m/s | 24 W/m² | - |
| 1777983551 | 21.11° C | 82% | 1016.9 hPa | 0 mm | 0 m/s | 24 W/m² | - |
| 1777982950 | 21.11° C | 82% | 1016.8 hPa | 0 mm | 0 m/s | 24 W/m² | - |
| 1777982345 | 20.56° C | 83% | 1017.1 hPa | 0 mm | 0 m/s | 21 W/m² | - |
| 1777981740 | 20.56° C | 84% | 1016.9 hPa | 0 mm | 0 m/s | 22 W/m² | - |
| 1777981139 | 20° C | 85% | 1016.7 hPa | 0 mm | 0 m/s | 19 W/m² | - |
| 1777980537 | 19.44° C | 87% | 1016.6 hPa | 0 mm | 0 m/s | 20 W/m² | - |
| 1777979936 | 19.44° C | 87% | 1016.2 hPa | 0 mm | 0 m/s | 11 W/m² | - |
| 1777979333 | 18.89° C | 87% | 1016.2 hPa | 0 mm | 0 m/s | 7 W/m² | - |
| 1777978733 | 18.89° C | 87% | 1015.8 hPa | 0 mm | 0 m/s | 4 W/m² | - |
| 1777978132 | 18.89° C | 87% | 1015.7 hPa | 0 mm | 0 m/s | 1 W/m² | - |
| 1777977531 | 18.89° C | 87% | 1015.8 hPa | 0 mm | 0 m/s | 0 W/m² | - |
* Rain latest hour (hover to see other rain measurements)
** Current wind speed in m/s (hover to see current wind gust speed)